When you browse on this site, cookies collect data to enhance your experience and personalize the content and advertising you see.
Visit our Privacy Policy to learn more. By continuing to use the site, you agree to this use of cookies and data.
  • In Belgium
  • List of Countries
  • For 7 days
  • Water Temperature
  • Satellite Maps
  • Weather Map
  • Weather Widgets
  • user-avatar
    Login

    Hourly Weather Ramultowice

    Today, 24 January, Thursday

    Time Temperature Precipitation Wind Pressure Humidity
    00:00 -7°C° 0 mm 5 mps 743 mmHg 69%
    01:00 -7°C° 0 mm 4 mps 743 mmHg 70%
    02:00 -7°C° 0 mm 4 mps 743 mmHg 69%
    03:00 -8°C° 0 mm 4 mps 743 mmHg 69%
    04:00 -8°C° 0 mm 4 mps 743 mmHg 69%
    05:00 -8°C° 0 mm 4 mps 744 mmHg 70%
    06:00 -8°C° 0 mm 4 mps 744 mmHg 70%
    07:00 -8°C° 0 mm 4 mps 744 mmHg 70%
    08:00 -8°C° 0 mm 4 mps 744 mmHg 69%
    09:00 -8°C° 0 mm 4 mps 745 mmHg 67%
    10:00 -8°C° 0 mm 5 mps 745 mmHg 66%
    11:00 -7°C° 0 mm 4 mps 745 mmHg 64%
    12:00 -7°C° 0 mm 4 mps 745 mmHg 63%
    13:00 -7°C° 0 mm 4 mps 745 mmHg 61%
    14:00 -7°C° 0 mm 4 mps 745 mmHg 62%
    15:00 -7°C° 0 mm 4 mps 745 mmHg 64%
    16:00 -7°C° 0 mm 4 mps 745 mmHg 65%
    17:00 -7°C° 0 mm 4 mps 745 mmHg 66%
    18:00 -7°C° 0 mm 4 mps 746 mmHg 67%
    19:00 -7°C° 0 mm 4 mps 746 mmHg 68%
    20:00 -6°C° 0 mm 3 mps 746 mmHg 68%
    21:00 -6°C° 0 mm 3 mps 746 mmHg 68%
    22:00 -6°C° 0 mm 3 mps 747 mmHg 68%
    23:00 -6°C° 0 mm 3 mps 747 mmHg 68%

    Tomorrow, 25 January, Friday

    Time Temperature Precipitation Wind Pressure Humidity
    00:00 -5°C° 0 mm 2 mps 747 mmHg 69%
    01:00 -5°C° 0 mm 2 mps 747 mmHg 69%
    02:00 -5°C° 0 mm 2 mps 747 mmHg 70%
    03:00 -5°C° 0 mm 2 mps 747 mmHg 72%
    04:00 -6°C° 0 mm 2 mps 747 mmHg 73%
    05:00 -6°C° 0 mm 2 mps 747 mmHg 74%
    06:00 -6°C° 0 mm 2 mps 747 mmHg 74%
    07:00 -6°C° 0 mm 2 mps 747 mmHg 75%
    08:00 -6°C° 0 mm 2 mps 748 mmHg 74%
    09:00 -5°C° 0 mm 2 mps 748 mmHg 73%
    10:00 -5°C° 0 mm 2 mps 748 mmHg 72%
    11:00 -6°C° 0 mm 3 mps 748 mmHg 70%
    12:00 -6°C° 0 mm 3 mps 748 mmHg 67%
    13:00 -5°C° 0 mm 3 mps 748 mmHg 65%
    14:00 -5°C° 0 mm 3 mps 749 mmHg 64%
    15:00 -5°C° 0 mm 4 mps 749 mmHg 63%
    16:00 -7°C° 0 mm 4 mps 749 mmHg 63%
    17:00 -7°C° 0 mm 4 mps 750 mmHg 63%
    18:00 -7°C° 0 mm 4 mps 750 mmHg 63%
    19:00 -6°C° 0 mm 3 mps 750 mmHg 64%
    20:00 -6°C° 0 mm 3 mps 750 mmHg 65%
    21:00 -6°C° 0 mm 3 mps 751 mmHg 67%
    22:00 -7°C° 0 mm 3 mps 751 mmHg 68%
    23:00 -7°C° 0 mm 3 mps 751 mmHg 69%

    Day after tomorrow, 26 January, Saturday

    Time Temperature Precipitation Wind Pressure Humidity
    00:00 -7°C° 0 mm 3 mps 750 mmHg 70%
    01:00 -6°C° 0 mm 2 mps 750 mmHg 71%
    02:00 -6°C° 0 mm 2 mps 750 mmHg 71%
    03:00 -7°C° 0 mm 2 mps 750 mmHg 71%
    04:00 -7°C° 0 mm 2 mps 749 mmHg 70%
    05:00 -7°C° 0 mm 3 mps 749 mmHg 67%
    06:00 -7°C° 0 mm 3 mps 749 mmHg 65%
    07:00 -7°C° 0 mm 3 mps 748 mmHg 62%
    08:00 -7°C° 0 mm 4 mps 748 mmHg 58%
    09:00 -6°C° 0 mm 5 mps 747 mmHg 54%
    10:00 -5°C° 0 mm 6 mps 746 mmHg 50%
    11:00 -4°C° 0.6 mm 6 mps 746 mmHg 61%
    12:00 -3°C° 0.6 mm 6 mps 745 mmHg 72%
    13:00 -1°C° 0.6 mm 5 mps 744 mmHg 82%
    14:00 -2°C° 0.6 mm 6 mps 744 mmHg 83%
    15:00 -1°C° 0.6 mm 6 mps 743 mmHg 83%
    16:00 +1°C° 0.6 mm 6 mps 743 mmHg 84%
    17:00 +1°C° 0.1 mm 6 mps 743 mmHg 85%
    18:00 +1°C° 0.1 mm 5 mps 743 mmHg 86%
    19:00 +1°C° 0.1 mm 5 mps 743 mmHg 87%
    20:00 +1°C° 0.1 mm 5 mps 743 mmHg 88%
    21:00 +1°C° 0.1 mm 4 mps 743 mmHg 89%
    22:00 0°C° 0.1 mm 4 mps 743 mmHg 90%
    23:00 0°C° 0.4 mm 4 mps 743 mmHg 91%

    27 January, Sunday

    Time Temperature Precipitation Wind Pressure Humidity
    00:00 +1°C° 0.4 mm 3 mps 743 mmHg 91%
    01:00 +1°C° 0.4 mm 3 mps 743 mmHg 92%
    02:00 +1°C° 0.3 mm 3 mps 743 mmHg 91%
    03:00 +1°C° 0.3 mm 3 mps 742 mmHg 91%
    04:00 +1°C° 0.3 mm 3 mps 742 mmHg 90%
    05:00 0°C° 0 mm 3 mps 741 mmHg 89%
    06:00 0°C° 0 mm 3 mps 741 mmHg 88%
    07:00 -1°C° 0 mm 4 mps 740 mmHg 86%
    08:00 0°C° 0 mm 4 mps 740 mmHg 83%
    09:00 0°C° 0 mm 5 mps 740 mmHg 81%
    10:00 +1°C° 0 mm 5 mps 739 mmHg 78%
    11:00 +1°C° 0 mm 5 mps 739 mmHg 75%
    12:00 +2°C° 0 mm 5 mps 738 mmHg 73%
    13:00 +3°C° 0 mm 5 mps 737 mmHg 71%
    14:00 +2°C° 0 mm 5 mps 737 mmHg 71%
    15:00 +2°C° 0 mm 5 mps 736 mmHg 72%
    16:00 +1°C° 0 mm 5 mps 736 mmHg 72%
    17:00 +1°C° 0.1 mm 5 mps 736 mmHg 72%
    18:00 +1°C° 0.1 mm 5 mps 736 mmHg 72%
    19:00 -1°C° 0.1 mm 6 mps 736 mmHg 72%
    20:00 -1°C° 0.1 mm 6 mps 736 mmHg 74%
    21:00 -1°C° 0.1 mm 6 mps 736 mmHg 76%
    22:00 0°C° 0.1 mm 5 mps 736 mmHg 78%
    23:00 0°C° 0 mm 5 mps 735 mmHg 78%

    28 January, Monday

    Time Temperature Precipitation Wind Pressure Humidity
    00:00 -1°C° 0 mm 6 mps 735 mmHg 78%
    01:00 -1°C° 0 mm 6 mps 735 mmHg 78%
    02:00 -1°C° 0 mm 6 mps 734 mmHg 79%
    03:00 0°C° 0 mm 5 mps 734 mmHg 79%
    04:00 0°C° 0 mm 5 mps 734 mmHg 80%
    05:00 0°C° 0 mm 5 mps 734 mmHg 80%
    06:00 -1°C° 0 mm 5 mps 734 mmHg 79%
    07:00 -1°C° 0 mm 5 mps 734 mmHg 79%
    08:00 -1°C° 0 mm 6 mps 734 mmHg 76%
    09:00 0°C° 0 mm 7 mps 734 mmHg 72%
    10:00 +1°C° 0 mm 8 mps 734 mmHg 68%
    11:00 +1°C° 0 mm 8 mps 734 mmHg 67%
    12:00 +1°C° 0 mm 8 mps 734 mmHg 65%
    13:00 +2°C° 0 mm 8 mps 734 mmHg 64%
    14:00 +2°C° 0 mm 7 mps 735 mmHg 67%
    15:00 +2°C° 0 mm 7 mps 735 mmHg 70%
    16:00 +1°C° 0 mm 6 mps 736 mmHg 73%
    17:00 +1°C° 0 mm 5 mps 736 mmHg 77%
    18:00 0°C° 0 mm 5 mps 737 mmHg 80%
    19:00 -1°C° 0 mm 4 mps 737 mmHg 83%
    20:00 -1°C° 0 mm 4 mps 738 mmHg 83%
    21:00 -2°C° 0 mm 4 mps 739 mmHg 82%
    22:00 -2°C° 0 mm 4 mps 739 mmHg 82%
    23:00 -2°C° 0 mm 4 mps 739 mmHg 82%

    29 January, Tuesday

    Time Temperature Precipitation Wind Pressure Humidity
    00:00 -2°C° 0 mm 4 mps 739 mmHg 82%
    01:00 -3°C° 0 mm 4 mps 740 mmHg 82%
    02:00 -2°C° 0 mm 3 mps 740 mmHg 83%
    03:00 -2°C° 0 mm 3 mps 740 mmHg 83%
    04:00 -2°C° 0 mm 3 mps 740 mmHg 84%
    05:00 -2°C° 0 mm 3 mps 740 mmHg 84%
    06:00 -4°C° 0 mm 3 mps 740 mmHg 83%
    07:00 -4°C° 0 mm 3 mps 740 mmHg 83%
    08:00 -2°C° 0 mm 3 mps 740 mmHg 79%
    09:00 -1°C° 0 mm 3 mps 740 mmHg 75%
    10:00 0°C° 0 mm 3 mps 740 mmHg 70%
    11:00 0°C° 0 mm 3 mps 740 mmHg 67%
    12:00 +1°C° 0 mm 3 mps 740 mmHg 64%
    13:00 +2°C° 0 mm 3 mps 740 mmHg 61%
    14:00 +1°C° 0 mm 3 mps 740 mmHg 64%
    15:00 0°C° 0 mm 3 mps 739 mmHg 67%
    16:00 0°C° 0 mm 3 mps 739 mmHg 70%
    17:00 -1°C° 0 mm 3 mps 739 mmHg 70%
    18:00 -2°C° 0 mm 4 mps 739 mmHg 71%
    19:00 -3°C° 0 mm 4 mps 739 mmHg 72%
    20:00 -3°C° 0 mm 4 mps 739 mmHg 72%
    21:00 -2°C° 0 mm 4 mps 739 mmHg 73%
    22:00 -2°C° 0 mm 4 mps 739 mmHg 74%
    23:00 -2°C° 0.2 mm 4 mps 739 mmHg 78%
    Show more